• In Uzbekistan
  • List of Countries
  • For 7 days
  • Water Temperature
  • Satellite Maps
  • Weather Map
  • Weather Widgets
  • user-avatar
    Login

    Hourly Weather Louangphabang

    Today, 18 June, Monday

    Time Temperature Precipitation Wind Pressure Humidity
    00:00 +24°C° 1.3 mm 1 mps 692 mmHg 98%
    01:00 +23°C° 0 mm 1 mps 692 mmHg 98%
    02:00 +21°C° 0.9 mm 0 mps 692 mmHg 98%
    03:00 +21°C° 0.9 mm 0 mps 692 mmHg 99%
    04:00 +21°C° 0.9 mm 0 mps 692 mmHg 99%
    05:00 +21°C° 0.3 mm 0 mps 692 mmHg 98%
    06:00 +21°C° 0.3 mm 0 mps 692 mmHg 97%
    07:00 +24°C° 0 mm 1 mps 692 mmHg 97%
    08:00 +26°C° 0.9 mm 1 mps 692 mmHg 93%
    09:00 +27°C° 0.9 mm 1 mps 692 mmHg 89%
    10:00 +28°C° 0.9 mm 1 mps 692 mmHg 84%
    11:00 +29°C° 2.2 mm 1 mps 692 mmHg 85%
    12:00 +29°C° 2.2 mm 1 mps 692 mmHg 85%
    13:00 +29°C° 0 mm 1 mps 692 mmHg 84%
    14:00 +30°C° 1.7 mm 1 mps 691 mmHg 83%
    15:00 +30°C° 1.7 mm 1 mps 691 mmHg 82%
    16:00 +30°C° 1.7 mm 1 mps 691 mmHg 81%
    17:00 +29°C° 1 mm 1 mps 691 mmHg 84%
    18:00 +27°C° 1 mm 1 mps 691 mmHg 88%
    19:00 +26°C° 1 mm 1 mps 691 mmHg 92%
    20:00 +25°C° 0.2 mm 1 mps 691 mmHg 93%
    21:00 +25°C° 0.2 mm 1 mps 691 mmHg 94%
    22:00 +25°C° 0.2 mm 1 mps 692 mmHg 96%
    23:00 +24°C° 0.9 mm 1 mps 692 mmHg 96%

    Tomorrow, 19 June, Tuesday

    Time Temperature Precipitation Wind Pressure Humidity
    00:00 +24°C° 0.9 mm 1 mps 692 mmHg 97%
    01:00 +24°C° 0.9 mm 1 mps 692 mmHg 97%
    02:00 +24°C° 0.7 mm 1 mps 692 mmHg 97%
    03:00 +22°C° 0.7 mm 0 mps 692 mmHg 98%
    04:00 +22°C° 0.7 mm 0 mps 692 mmHg 98%
    05:00 +22°C° 0.3 mm 0 mps 692 mmHg 97%
    06:00 +22°C° 0.3 mm 0 mps 692 mmHg 96%
    07:00 +23°C° 0.3 mm 0 mps 692 mmHg 96%
    08:00 +24°C° 0.7 mm 0 mps 693 mmHg 92%
    09:00 +25°C° 0.7 mm 0 mps 693 mmHg 87%
    10:00 +28°C° 0.7 mm 1 mps 694 mmHg 83%
    11:00 +29°C° 0.9 mm 1 mps 693 mmHg 82%
    12:00 +29°C° 0.9 mm 1 mps 693 mmHg 80%
    13:00 +30°C° 0.9 mm 1 mps 693 mmHg 79%
    14:00 +29°C° 0.8 mm 1 mps 692 mmHg 80%
    15:00 +29°C° 0.8 mm 1 mps 692 mmHg 80%
    16:00 +29°C° 0.8 mm 1 mps 691 mmHg 81%
    17:00 +28°C° 0.2 mm 1 mps 691 mmHg 85%
    18:00 +27°C° 0.2 mm 1 mps 691 mmHg 89%
    19:00 +26°C° 0.2 mm 1 mps 691 mmHg 92%
    20:00 +25°C° 0.4 mm 1 mps 692 mmHg 93%
    21:00 +25°C° 0.4 mm 1 mps 693 mmHg 94%
    22:00 +25°C° 0.4 mm 1 mps 693 mmHg 95%
    23:00 +24°C° 1.5 mm 1 mps 693 mmHg 96%

    Day after tomorrow, 20 June, Wednesday

    Time Temperature Precipitation Wind Pressure Humidity
    00:00 +24°C° 1.5 mm 1 mps 693 mmHg 97%
    01:00 +24°C° 1.5 mm 1 mps 693 mmHg 98%
    02:00 +24°C° 0.7 mm 1 mps 693 mmHg 98%
    03:00 +22°C° 0.7 mm 0 mps 693 mmHg 98%
    04:00 +21°C° 0.7 mm 0 mps 693 mmHg 98%
    05:00 +22°C° 0.1 mm 0 mps 693 mmHg 98%
    06:00 +22°C° 0.1 mm 0 mps 694 mmHg 97%
    07:00 +22°C° 0.1 mm 0 mps 694 mmHg 97%
    08:00 +26°C° 0.1 mm 1 mps 694 mmHg 89%
    09:00 +28°C° 0.1 mm 1 mps 695 mmHg 81%
    10:00 +29°C° 0.1 mm 1 mps 695 mmHg 74%
    11:00 +29°C° 0.8 mm 1 mps 695 mmHg 77%
    12:00 +30°C° 0.8 mm 1 mps 694 mmHg 79%
    13:00 +30°C° 0.8 mm 1 mps 694 mmHg 82%
    14:00 +30°C° 1.8 mm 1 mps 693 mmHg 85%
    15:00 +29°C° 1.8 mm 1 mps 693 mmHg 87%
    16:00 +29°C° 1.8 mm 1 mps 692 mmHg 90%
    17:00 +27°C° 1.5 mm 1 mps 692 mmHg 92%
    18:00 +26°C° 1.5 mm 1 mps 693 mmHg 94%
    19:00 +25°C° 1.5 mm 1 mps 693 mmHg 96%
    20:00 +25°C° 0.6 mm 1 mps 693 mmHg 97%
    21:00 +24°C° 0.6 mm 1 mps 694 mmHg 97%
    22:00 +24°C° 0.6 mm 1 mps 695 mmHg 98%
    23:00 +24°C° 0.5 mm 1 mps 695 mmHg 98%

    21 June, Thursday

    Time Temperature Precipitation Wind Pressure Humidity
    00:00 +24°C° 0.5 mm 1 mps 694 mmHg 98%
    01:00 +23°C° 0.5 mm 1 mps 694 mmHg 98%
    02:00 +23°C° 0.1 mm 1 mps 694 mmHg 99%
    03:00 +21°C° 0.1 mm 0 mps 694 mmHg 99%
    04:00 +21°C° 0.1 mm 0 mps 694 mmHg 99%
    05:00 +21°C° 0 mm 0 mps 694 mmHg 98%
    06:00 +22°C° 0 mm 0 mps 694 mmHg 97%
    07:00 +22°C° 0 mm 0 mps 695 mmHg 96%
    08:00 +26°C° 0.1 mm 1 mps 695 mmHg 87%
    09:00 +28°C° 0.1 mm 1 mps 695 mmHg 77%
    10:00 +30°C° 0.1 mm 1 mps 696 mmHg 68%
    11:00 +30°C° 0.5 mm 1 mps 695 mmHg 69%
    12:00 +31°C° 0.5 mm 1 mps 695 mmHg 70%
    13:00 +31°C° 0.5 mm 1 mps 694 mmHg 71%
    14:00 +31°C° 1 mm 1 mps 693 mmHg 73%
    15:00 +30°C° 1 mm 1 mps 693 mmHg 76%
    16:00 +30°C° 1 mm 1 mps 692 mmHg 78%
    17:00 +29°C° 0.3 mm 1 mps 692 mmHg 82%
    18:00 +27°C° 0.3 mm 1 mps 692 mmHg 85%
    19:00 +26°C° 0.3 mm 1 mps 693 mmHg 89%
    20:00 +25°C° 0.1 mm 1 mps 693 mmHg 91%
    21:00 +25°C° 0.1 mm 1 mps 694 mmHg 92%
    22:00 +24°C° 0.1 mm 1 mps 694 mmHg 94%
    23:00 +24°C° 0 mm 1 mps 694 mmHg 95%

    22 June, Friday

    Time Temperature Precipitation Wind Pressure Humidity
    00:00 +24°C° 0 mm 1 mps 694 mmHg 95%
    01:00 +24°C° 0 mm 1 mps 694 mmHg 96%
    02:00 +23°C° 0 mm 1 mps 693 mmHg 96%
    03:00 +21°C° 0 mm 0 mps 693 mmHg 97%
    04:00 +21°C° 0 mm 0 mps 693 mmHg 97%
    05:00 +21°C° 0 mm 0 mps 693 mmHg 95%
    06:00 +22°C° 0 mm 0 mps 694 mmHg 93%
    07:00 +22°C° 0 mm 0 mps 694 mmHg 91%
    08:00 +26°C° 0.1 mm 1 mps 695 mmHg 82%
    09:00 +28°C° 0.1 mm 1 mps 695 mmHg 73%
    10:00 +30°C° 0.1 mm 1 mps 696 mmHg 65%
    11:00 +31°C° 0.6 mm 1 mps 695 mmHg 68%
    12:00 +31°C° 0.6 mm 1 mps 694 mmHg 70%
    13:00 +31°C° 0.6 mm 1 mps 694 mmHg 73%
    14:00 +30°C° 1.4 mm 1 mps 693 mmHg 77%
    15:00 +30°C° 1.4 mm 1 mps 693 mmHg 81%
    16:00 +29°C° 1.4 mm 1 mps 692 mmHg 85%
    17:00 +28°C° 1.1 mm 1 mps 692 mmHg 88%
    18:00 +26°C° 1.1 mm 1 mps 693 mmHg 91%
    19:00 +25°C° 1.1 mm 1 mps 693 mmHg 95%
    20:00 +25°C° 1.5 mm 1 mps 694 mmHg 96%
    21:00 +24°C° 1.5 mm 1 mps 694 mmHg 96%
    22:00 +24°C° 1.5 mm 1 mps 695 mmHg 97%
    23:00 +24°C° 0.4 mm 1 mps 694 mmHg 97%

    23 June, Saturday

    Time Temperature Precipitation Wind Pressure Humidity
    00:00 +24°C° 0.4 mm 1 mps 694 mmHg 97%
    01:00 +23°C° 0.4 mm 1 mps 694 mmHg 98%
    02:00 +23°C° 0.1 mm 1 mps 694 mmHg 98%
    03:00 +21°C° 0.1 mm 0 mps 693 mmHg 98%
    04:00 +21°C° 0.1 mm 0 mps 693 mmHg 98%
    05:00 +21°C° 0.1 mm 0 mps 693 mmHg 98%
    06:00 +22°C° 0.1 mm 0 mps 694 mmHg 97%
    07:00 +22°C° 0.1 mm 0 mps 694 mmHg 96%
    08:00 +25°C° 0.2 mm 1 mps 695 mmHg 90%
    09:00 +26°C° 0.2 mm 1 mps 695 mmHg 84%
    10:00 +28°C° 0.2 mm 1 mps 695 mmHg 78%
    11:00 +28°C° 0.6 mm 1 mps 695 mmHg 77%
    12:00 +29°C° 0.6 mm 1 mps 694 mmHg 77%
    13:00 +29°C° 0.6 mm 1 mps 694 mmHg 77%
    14:00 +28°C° 1 mm 1 mps 693 mmHg 82%
    15:00 +28°C° 1 mm 1 mps 693 mmHg 86%
    16:00 +27°C° 1 mm 1 mps 693 mmHg 91%
    17:00 +26°C° 0.8 mm 1 mps 693 mmHg 93%
    18:00 +25°C° 0.8 mm 1 mps 693 mmHg 95%
    19:00 +24°C° 0.8 mm 1 mps 693 mmHg 97%
    20:00 +24°C° 0.5 mm 1 mps 694 mmHg 97%
    21:00 +24°C° 0.5 mm 1 mps 694 mmHg 97%
    22:00 +23°C° 0.5 mm 1 mps 695 mmHg 97%
    23:00 +23°C° 0.2 mm 1 mps 694 mmHg 98%
    Show more